TimePDT,TemperatureF,Dew PointF,Humidity,Sea Level PressureIn,VisibilityMPH,Wind Direction,Wind SpeedMPH,Gust SpeedMPH,PrecipitationIn,Events,Conditions,WindDirDegrees,DateUTC
12:53 AM,55.9,35.1,45,30.22,10.0,North,9.2,-,N/A,,Clear,10,2012-10-06 07:53:00
1:53 AM,55.0,36.0,49,30.23,10.0,North,10.4,-,N/A,,Clear,10,2012-10-06 08:53:00
2:53 AM,54.0,36.0,51,30.22,10.0,North,9.2,-,N/A,,Clear,10,2012-10-06 09:53:00
3:53 AM,53.1,36.0,52,30.21,10.0,North,8.1,-,N/A,,Clear,10,2012-10-06 10:53:00
4:53 AM,53.1,36.0,52,30.21,10.0,North,6.9,-,N/A,,Clear,10,2012-10-06 11:53:00
5:53 AM,52.0,37.0,57,30.21,10.0,North,8.1,-,N/A,,Clear,10,2012-10-06 12:53:00
6:53 AM,51.1,37.0,59,30.22,10.0,NNE,5.8,-,N/A,,Clear,20,2012-10-06 13:53:00
7:53 AM,48.0,39.9,74,30.23,9.0,Calm,Calm,-,N/A,,Clear,0,2012-10-06 14:53:00
8:53 AM,53.1,36.0,52,30.23,9.0,North,5.8,-,N/A,,Clear,10,2012-10-06 15:53:00
9:53 AM,57.9,34.0,41,30.23,9.0,North,5.8,-,N/A,,Clear,360,2012-10-06 16:53:00
10:53 AM,62.1,32.0,32,30.22,8.0,North,12.7,-,N/A,,Clear,360,2012-10-06 17:53:00
11:53 AM,64.9,30.9,28,30.22,9.0,North,11.5,17.3,N/A,,Clear,360,2012-10-06 18:53:00
12:53 PM,66.0,30.0,26,30.20,8.0,North,10.4,-,N/A,,Clear,10,2012-10-06 19:53:00
1:53 PM,69.1,28.9,22,30.18,8.0,North,9.2,-,N/A,,Clear,360,2012-10-06 20:53:00
2:53 PM,71.1,26.1,19,30.16,9.0,North,10.4,-,N/A,,Clear,360,2012-10-06 21:53:00
3:53 PM,72.0,21.9,15,30.14,8.0,North,11.5,-,N/A,,Clear,360,2012-10-06 22:53:00
4:53 PM,71.1,27.0,19,30.12,9.0,North,11.5,-,N/A,,Clear,360,2012-10-06 23:53:00
5:53 PM,68.0,28.0,22,30.11,10.0,North,13.8,-,N/A,,Clear,10,2012-10-07 00:53:00
6:53 PM,64.0,27.0,25,30.11,9.0,North,12.7,-,N/A,,Clear,10,2012-10-07 01:53:00
7:53 PM,62.1,33.1,34,30.12,10.0,North,13.8,-,N/A,,Clear,360,2012-10-07 02:53:00
8:53 PM,62.6,32.0,32,30.11,10.0,North,9.2,-,N/A,,Clear,10,2012-10-07 03:53:00
9:53 PM,60.1,34.0,38,30.11,10.0,North,11.5,-,N/A,,Clear,10,2012-10-07 04:53:00
10:53 PM,59.0,35.1,41,30.11,10.0,NNE,6.9,-,N/A,,Clear,20,2012-10-07 05:53:00
11:53 PM,57.9,36.0,44,30.11,10.0,NNE,5.8,-,N/A,,Clear,30,2012-10-07 06:53:00